Location: Unspecified
(0.0000°N, 0.0000°E)
Time: 05:39:25
(UTC+00:00)

Hubble Space Telescope - Visible Passes

Search period start: 25 November 2017 00:00
Search period end: 05 December 2017 00:00
Orbit: 537 x 541 km, 28.5° (Epoch: 24 November)

Date Brightness Start Highest point End Pass type
(mag) Time Alt. Az. Time Alt. Az. Time Alt. Az.
25 Nov 3.3 18:51:26 10° SSE 18:52:19 11° SSE 18:53:12 10° SE visible
26 Nov 3.0 18:39:52 10° S 18:42:11 14° SSE 18:44:30 10° ESE visible
26 Nov 3.8 20:19:17 10° WSW 20:19:57 14° WSW 20:19:57 14° WSW visible
27 Nov 2.6 18:28:58 10° SSW 18:32:01 20° SSE 18:35:03 10° ESE visible
27 Nov 3.3 20:09:07 10° WSW 20:10:25 19° WSW 20:10:25 19° WSW visible
28 Nov 2.2 18:18:18 10° SSW 18:21:51 27° SSE 18:25:23 10° E visible
28 Nov 2.9 19:59:03 10° WSW 20:00:55 24° W 20:00:55 24° W visible
29 Nov 1.7 18:07:46 10° SW 18:11:38 37° SSE 18:15:31 10° E visible
29 Nov 2.7 19:49:06 10° W 19:51:27 25° WNW 19:51:27 25° WNW visible
30 Nov 2.7 19:39:19 10° W 19:41:58 22° NW 19:41:58 22° NW visible
01 Dec 3.2 04:14:21 11° NNE 04:15:00 11° NNE 04:16:25 10° NE visible
01 Dec 2.9 19:29:45 10° WNW 19:32:26 17° NNW 19:32:30 17° NNW visible
02 Dec 3.0 04:04:53 16° NNE 04:04:53 16° NNE 04:07:24 10° ENE visible
02 Dec 3.2 19:20:34 10° NW 19:22:17 12° NNW 19:23:01 12° NNW visible
03 Dec 2.8 03:55:25 20° NE 03:55:25 20° NE 03:57:52 10° E visible
04 Dec 2.8 03:45:55 23° ENE 03:45:55 23° ENE 03:48:07 10° E visible
04 Dec 1.6 05:21:46 10° W 05:25:39 39° SSW 05:29:32 10° SE visible
